COSMOS 1791

导读

COSMOS 1791是苏联(CIS)“宇宙”系列卫星,1986年11月13日发射入轨。作为冷战时期太空军事活动的产物,它延续了该系列卫星典型的军用侦察属性,承担对地观测或信号情报收集任务,服务于苏联战略监测需求。该卫星是苏联在航天领域持续布局的重要一环,体现了当时美苏太空对抗背景下,苏联空间技术的发展水平与军事化应用方向。

Basic Information
目录编号:
17066
目录名称:
COSMOS 1791
国际标识:
1986-086A
轨道中心:
EARTH
卫星名称:
COSMOS 1791
卫星全名:
--
卫星状态:
在轨 (已飞行14465 天)
发射日期:
1986-11-13 UTC
国别 :
俄罗斯(独联体) (CIS)
星等 :
--
Orbit Information
数据来源 国际轨道数据 AOE轨道数据
星历时间 2026-06-20T15:37:30+0800
1天前
查看轨道信息
2026-06-16T02:00:00+0800
5天前
查看轨道信息
半长轴 7356.047km 7356.05km
偏心率 0.0039801 0.003972
轨道倾角 82.947° 82.947°
近地点辐角 229.212° 242.784°
升交点赤经 259.122° 262.508°
平近点角 191.662° 243.338°
近地点 948.632km 948.694km
远地点 1007.188km 1007.132km
周期 104.647分钟 104.647分钟
每日圈数 13.760559 13.760549
Detailed Information
使用方式:
暂无
2D Orbit Map
3D Orbit Map
Orbit Altitude Analysis Chart
Orbit Inclination Analysis Chart
Orbit Comprehensive Analysis Chart
View Comprehensive Chart